Flag for Kazakhstan Weather past 2 weeks in Shymkent, Kazakhstan

Now
61 °F

Clear.


Feels Like: 61 °F
Forecast: 58 / 87 °F
Wind: 10 mph from Southeast

Location: Shymkent Airport

Current Time: Apr 22, 2015 at 3:16:57 AM

Latest Report: Apr 22, 2015 at 2:30 AM


Visibility: 10 mi

Pressure: 29.95 "Hg

Humidity: 55%

Dew point: 45 °F

Location of ShymkentLocation

Historic Weather in Shymkent — Graph

°F

Shymkent temperature yesterday

Maximum temperature yesterday: 82 °F (at 2:30 PM)
Minimum temperature yesterday: 52 °F (at 5:00 AM)
Average temperature yesterday: 68 °F

Past Weeks' High & Low Weather Summary

 TemperatureHumidityPressure
High84 °F (Apr 12, 1:00 PM)100% (Apr 7, 4:30 AM)30.27 "Hg (Apr 7, 4:30 AM)
Low45 °F (Apr 9, 4:30 AM)12% (Apr 12, 12:00 PM)29.74 "Hg (Apr 14, 8:30 AM)
Average62 °F56%30.04 "Hg
* Reported Apr 7 2:00 AM — Apr 22 2:00 AM, Shymkent, Weather by CustomWeather, © 2015

Note: Actual official high and low records may vary slightly from our data, if they occured in-between our weather recording intervals... More about our weather records

Advertising

Shymkent weather history for previous 24 hours

 ConditionsComfort  
Time TempWeatherWind HumidityBarometerVisibility
2:00 AM
Wed, Apr 22
61 °FClear.10 mph55%29.95 "Hg10 mi
1:30 AM61 °FClear.10 mph55%29.95 "Hg10 mi
1:00 AM59 °FClear.10 mph59%29.95 "Hg10 mi
12:30 AM63 °FClear.10 mph52%29.98 "Hg4 mi
12:00 AM63 °FClear.10 mph52%29.98 "Hg4 mi
11:30 PM
Tue, Apr 21
63 °FClear.10 mph56%29.98 "Hg4 mi
11:00 PM63 °FClear.8 mph56%29.98 "Hg4 mi
10:30 PM66 °FClear.8 mph49%29.98 "Hg4 mi
10:00 PM63 °FClear.6 mph59%29.98 "Hg4 mi
9:30 PM68 °FClear.3 mph49%29.98 "Hg10 mi
9:00 PM68 °FClear.3 mph46%29.98 "Hg10 mi
8:30 PM72 °FClear.1 mph38%29.98 "Hg10 mi
8:00 PM73 °FSunny.1 mph38%29.98 "Hg10 mi
7:30 PM75 °FSunny.3 mph39%29.98 "Hg10 mi
7:00 PM79 °FSunny.6 mph32%29.98 "Hg10 mi
6:30 PM81 °FSunny.6 mph28%29.98 "Hg10 mi
6:00 PM82 °FPassing clouds.3 mph26%29.98 "HgN/A
5:30 PM82 °FPassing clouds.6 mph21%29.98 "HgN/A
5:00 PM82 °FSunny.13 mph26%29.98 "Hg10 mi
4:30 PM82 °FSunny.10 mph21%29.98 "Hg10 mi
4:00 PM82 °FSunny.10 mph21%29.98 "Hg10 mi
3:30 PM82 °FSunny.10 mph23%30.01 "Hg10 mi
3:00 PM82 °FSunny.10 mph20%30.01 "Hg10 mi
2:30 PM82 °FSunny.10 mph20%30.01 "Hg10 mi
2:00 PM81 °FSunny.10 mph21%30.01 "Hg10 mi
1:30 PM79 °FSunny.10 mph28%30.01 "Hg10 mi
1:00 PM79 °FSunny.10 mph28%30.04 "Hg10 mi
12:30 PM77 °FSunny.1 mph24%30.04 "Hg10 mi
12:00 PM79 °FSunny.3 mph26%30.04 "Hg10 mi
11:30 AM77 °FPassing clouds.6 mph26%30.04 "HgN/A
11:00 AM75 °FPassing clouds.6 mph29%30.04 "HgN/A
10:30 AM75 °FSunny.6 mph29%30.04 "Hg10 mi
10:00 AM73 °FSunny.6 mph31%30.04 "Hg10 mi
9:30 AM70 °FSunny.6 mph35%30.07 "Hg10 mi
9:00 AM66 °FSunny.6 mph46%30.07 "Hg10 mi
8:30 AM63 °FSunny.6 mph45%30.07 "Hg10 mi
8:00 AM59 °FSunny.10 mph55%30.07 "Hg10 mi
7:30 AM55 °FSunny.8 mph59%30.07 "Hg10 mi
7:00 AM52 °FSunny.6 mph62%30.04 "Hg10 mi
6:30 AM52 °FClear.8 mph62%30.04 "Hg10 mi
6:00 AM52 °FClear.3 mph62%30.04 "Hg10 mi
5:30 AM52 °FClear.6 mph67%30.07 "Hg10 mi
5:00 AM52 °FClear.3 mph67%30.07 "Hg10 mi
4:30 AM54 °FClear.6 mph63%30.07 "Hg10 mi
4:00 AM54 °FClear.8 mph63%30.07 "Hg10 mi
3:30 AM55 °FClear.8 mph59%30.07 "Hg10 mi
3:00 AM55 °FClear.8 mph63%30.07 "Hg10 mi
Weather by CustomWeather, © 2015

See weather overviewHow to use our weather pages